[[{"header":{"parameterUnit":"m.s-1","parameterCategory":1,"la1":30.2991,"la2":30.254,"lo1":-89.0895,"lo2":-89.0444,"dy":0.0017,"dx":0.0017,"nx":28,"ny":28,"refTime":"2025-12-23T03:00:00:Z","depth":0,"parameterNumber":2,"parameterNumberName":"U-component_of_WINDS"},"data":[0,0,0,0,0,0,0,0,0,0,0,0,0,0,0,0,0,0,0,0,0,0,0,0,0,0,0,0,0,0,0,0,0,0,0,0,0,0,0,0,0,0,0,0,0,0,0,0,0,0,0,0,0,0,0,0,0,0,-2.4125,-2.4125,0,-2.416,-2.416,-2.416,-2.4105,-2.4103,-2.4101,-2.4099,-2.4137,-2.4139,-2.4142,0,0,0,0,0,0,0,0,0,0,0,0,0,-2.4013,-2.4015,-2.4125,-2.4125,-2.4126,-2.416,-2.416,-2.4161,-2.4105,-2.4103,-2.4101,-2.4099,-2.4136,-2.4139,-2.4142,0,0,0,0,0,0,0,0,0,0,0,0,0,-2.4056,-2.4016,-2.4125,-2.4102,-2.41,-2.4159,-2.416,-2.4161,-2.4106,-2.4103,-2.41,-2.4097,-2.4135,-2.4139,-2.4143,-2.4226,0,0,-2.4156,-2.4157,0,0,0,0,0,0,0,0,-2.4054,-2.406,-2.4105,-2.4104,-2.4102,-2.4125,-2.4134,-2.4183,-2.4107,-2.4104,-2.4099,-2.4096,-2.4135,-2.4139,-2.4152,-2.4228,-2.4229,-2.4156,-2.4158,-2.416,-2.4161,0,0,0,0,0,0,0,-2.4051,-2.4058,-2.4139,-2.4106,-2.4104,-2.4091,-2.4094,-2.4143,-2.4135,-2.4104,-2.41,-2.4105,-2.4134,-2.4148,-2.4153,-2.423,-2.4156,-2.416,-2.4162,-2.4164,-2.4376,-2.4379,0,0,0,0,0,0,-2.405,-2.4056,-2.4137,-2.414,-2.407,-2.4095,-2.4099,-2.4121,-2.4135,-2.4134,-2.4107,-2.4102,-2.4142,-2.4148,-2.4154,-2.4251,-2.416,-2.4164,-2.4167,-2.4373,-2.4377,-2.438,0,0,0,0,0,0,-2.4048,-2.4058,-2.4136,-2.4097,-2.4106,-2.41,-2.4125,-2.4123,-2.4137,-2.4137,-2.4136,-2.4123,-2.414,-2.4148,-2.4208,-2.4252,-2.4166,-2.417,-2.4369,-2.4374,-2.4378,-2.4448,0,0,0,0,0,0,-2.4045,-2.4057,-2.4088,-2.4098,-2.4108,-2.419,-2.4128,-2.4126,-2.4144,-2.4138,-2.4151,-2.4151,-2.4139,-2.4202,-2.4212,-2.4256,-2.4173,-2.4365,-2.4371,-2.4377,-2.4442,-2.4455,-2.4466,0,0,0,0,0,-2.4041,-2.4107,-2.409,-2.41,-2.4146,-2.4192,-2.4198,-2.4182,-2.4148,-2.4179,-2.4179,-2.4151,-2.4246,-2.4209,-2.422,-2.4266,-2.4362,-2.4369,-2.4376,-2.4436,-2.4452,-2.4465,0,0,0,0,0,0,-2.4102,-2.4108,-2.4089,-2.416,-2.4176,-2.4183,-2.4221,-2.4199,-2.4226,-2.4219,-2.4198,-2.4202,-2.4267,-2.4273,-2.4231,-2.4347,-2.4298,-2.4308,-2.4341,-2.4355,-2.4367,-2.4364,-2.4176,0,0,0,0,0,-2.4124,-2.416,-2.4163,-2.4225,-2.4234,-2.4227,-2.4246,-2.4233,-2.4249,-2.4255,-2.426,-2.4277,-2.4311,-2.4334,-2.4365,-2.4443,-2.4445,-2.448,-2.4492,-2.4502,-2.451,-2.4551,-2.4567,-2.4403,-2.4403,-2.4403,0,0,-2.4169,-2.4177,-2.4201,-2.4238,-2.4249,-2.4287,-2.4233,-2.4276,-2.4304,-2.4262,-2.4319,-2.4324,-2.4342,-2.4411,-2.4442,-2.4418,-2.4556,-2.4511,-2.4518,-2.4521,-2.456,-2.4576,-2.459,-2.4408,-2.4407,-2.4406,0,0,-2.4271,-2.4281,-2.4333,-2.4345,-2.4363,-2.4357,-2.437,-2.4381,-2.4382,-2.4439,-2.4408,-2.4443,-2.4501,-2.4516,-2.453,-2.464,-2.4614,-2.4651,-2.4712,-2.4753,-2.4766,-2.4777,-2.4815,-2.483,-2.4659,-2.4659,-2.4659,0,-2.4325,-2.4381,-2.4363,-2.4408,-2.4425,-2.439,-2.4443,-2.4456,-2.4483,-2.4496,-2.4469,-2.4542,-2.4552,-2.4624,-2.4651,-2.4665,-2.4679,-2.4648,-2.4765,-2.4776,-2.4787,-2.4823,-2.4838,-2.4663,-2.4663,-2.4662,-2.4662,0,-2.4446,-2.4486,-2.4527,-2.4553,-2.4575,-2.4624,-2.4615,-2.464,-2.4625,-2.4623,-2.4682,-2.4693,-2.4725,-2.4742,-2.4728,-2.4813,-2.4798,-2.4768,-2.4719,-2.4807,-2.4841,-2.4854,-2.4669,-2.4668,-2.4667,-2.4666,0,0,-2.4585,-2.4602,-2.4618,-2.4629,-2.4647,-2.4677,-2.4725,-2.4757,-2.4779,-2.4799,-2.4839,-2.4891,-2.4864,-2.4881,-2.4869,-2.4905,-2.499,-2.4871,-2.4871,-2.4892,-2.5084,-2.5105,-2.5122,-2.4974,-2.4977,-2.4979,-2.5082,0,-2.4686,-2.4768,-2.4754,-2.4834,-2.487,-2.4838,-2.488,-2.4896,-2.4896,-2.4927,-2.4928,-2.4964,-2.4926,-2.4936,-2.4971,-2.4973,-2.5028,-2.4965,-2.5011,-2.5013,-2.5006,-2.5139,-2.5161,-2.5258,-2.5096,-2.5098,-2.51,0,-2.4813,-2.4838,-2.4922,-2.4934,-2.4948,-2.4986,-2.5015,-2.5045,-2.5063,-2.5061,-2.5081,-2.5062,-2.5111,-2.5062,-2.513,-2.5087,-2.5106,-2.511,-2.5113,-2.5115,-2.506,-2.5144,-2.5289,-2.5303,-2.512,-2.5119,-2.5117,0,-2.4906,-2.496,-2.5017,-2.5028,-2.5044,-2.5071,-2.5079,-2.5094,-2.5115,-2.514,-2.5153,-2.5184,-2.5201,-2.5226,-2.5217,-2.5182,-2.5286,-2.5237,-2.5286,-2.5286,-2.5307,-2.5306,-2.5456,-2.5322,-2.5322,-2.5321,-2.5321,0,-2.5018,-2.507,-2.5058,-2.5093,-2.5151,-2.5136,-2.5194,-2.5198,-2.5212,-2.5247,-2.5222,-2.5256,-2.5243,-2.5276,-2.527,-2.5326,-2.5335,-2.5334,-2.5332,-2.5336,-2.5336,-2.5346,-2.5339,-2.5325,-2.5324,-2.5324,-2.5323,0,-2.513,-2.5124,-2.5184,-2.5194,-2.5198,-2.524,-2.5249,-2.5283,-2.5281,-2.5327,-2.5337,-2.5335,-2.5374,-2.5368,-2.541,-2.5406,-2.5477,-2.5467,-2.547,-2.5467,-2.5516,-2.5511,-2.5677,-2.5698,-2.5552,-2.5553,-2.5554,0,-2.5201,-2.524,-2.5255,-2.5277,-2.5287,-2.5323,-2.5343,-2.533,-2.5353,-2.5377,-2.5407,-2.5444,-2.5472,-2.5535,-2.5538,-2.5571,-2.5561,-2.5617,-2.5565,-2.5568,-2.556,-2.5557,-2.5561,-2.5626,-2.5628,-2.5629,-2.563,0,-2.5328,-2.5324,-2.5354,-2.5384,-2.5409,-2.5432,-2.5453,-2.5472,-2.5462,-2.5489,-2.5527,-2.5549,-2.5593,-2.563,-2.5661,-2.567,-2.5649,-2.5647,-2.566,-2.5663,-2.5663,-2.5663,-2.5496,-2.5642,-2.5641,-2.564,-2.564,-2.5639,-2.5421,-2.5455,-2.547,-2.5505,-2.5519,-2.554,-2.5571,-2.5574,-2.5606,-2.564,-2.5631,-2.5676,-2.5694,-2.5733,-2.5746,-2.5781,-2.576,-2.5779,-2.5783,-2.5788,-2.5793,-2.5659,-2.5787,-2.5786,-2.5786,-2.5786,-2.5785,0,-2.5546,-2.5555,-2.5587,-2.5617,-2.5645,-2.5622,-2.5645,-2.5669,-2.5708,-2.5727,-2.5755,-2.58,-2.5836,-2.5842,-2.5876,-2.5903,-2.5894,-2.5912,-2.5909,-2.5912,-2.581,-2.5795,-2.5919,-2.5919,-2.5919,-2.5919,-2.5919,-2.5919,-2.5614,-2.5669,-2.5667,-2.573,-2.5738,-2.5781,-2.5795,-2.5814,-2.5829,-2.588,-2.5909,-2.5913,-2.5927,-2.5962,-2.5994,-2.5995,-2.6009,-2.603,-2.6028,-2.5932,-2.5919,-2.5906,-2.5892,-2.6034,-2.6034,-2.6126,-2.6127,-2.6128]},{"header":{"parameterUnit":"m.s-1","parameterCategory":1,"la1":30.2991,"la2":30.254,"lo1":-89.0895,"lo2":-89.0444,"dy":0.0017,"dx":0.0017,"nx":28,"ny":28,"refTime":"2025-12-23T03:00:00:Z","depth":0,"parameterNumber":3,"parameterNumberName":"V-component_of_WINDS"},"data":[0,0,0,0,0,0,0,0,0,0,0,0,0,0,0,0,0,0,0,0,0,0,0,0,0,0,0,0,0,0,0,0,0,0,0,0,0,0,0,0,0,0,0,0,0,0,0,0,0,0,0,0,0,0,0,0,0,0,0.6799,0.6799,0,0.6829,0.6829,0.6829,0.687,0.6871,0.6871,0.6872,0.6901,0.6901,0.6901,0,0,0,0,0,0,0,0,0,0,0,0,0,0.6776,0.6776,0.6799,0.6799,0.6799,0.6828,0.6829,0.6829,0.687,0.6871,0.6872,0.6872,0.6901,0.6901,0.6901,0,0,0,0,0,0,0,0,0,0,0,0,0,0.6794,0.6776,0.6799,0.6823,0.6826,0.6828,0.6829,0.6829,0.687,0.6871,0.6872,0.6873,0.6901,0.6901,0.6901,0.6882,0,0,0.6902,0.6902,0,0,0,0,0,0,0,0,0.6793,0.6795,0.6819,0.6822,0.6824,0.6847,0.6832,0.6847,0.687,0.6853,0.6872,0.6873,0.6882,0.6884,0.6887,0.6883,0.6884,0.6902,0.6902,0.6902,0.6902,0,0,0,0,0,0,0,0.6791,0.6794,0.681,0.682,0.6823,0.6833,0.6836,0.6835,0.6861,0.6855,0.6858,0.6861,0.6884,0.6887,0.6888,0.6885,0.6902,0.6902,0.6902,0.6902,0.6867,0.6866,0,0,0,0,0,0,0.6787,0.6792,0.681,0.6811,0.6811,0.6832,0.6836,0.6838,0.6861,0.6866,0.686,0.6862,0.6886,0.6888,0.6889,0.6868,0.6902,0.6902,0.6902,0.6868,0.6866,0.6865,0,0,0,0,0,0,0.6786,0.6788,0.6808,0.6803,0.6806,0.6831,0.6834,0.6838,0.6842,0.6865,0.687,0.6858,0.6887,0.6889,0.6884,0.687,0.6902,0.6903,0.6869,0.6867,0.6866,0.6825,0,0,0,0,0,0,0.6785,0.6787,0.678,0.6802,0.6806,0.6802,0.6833,0.6838,0.6842,0.6846,0.6865,0.6869,0.6888,0.6883,0.6884,0.687,0.6903,0.687,0.6868,0.6866,0.6828,0.6822,0.6818,0,0,0,0,0,0.6784,0.6767,0.678,0.6782,0.6798,0.6801,0.6804,0.6826,0.6841,0.6834,0.6849,0.6869,0.6871,0.6882,0.6883,0.687,0.6871,0.6869,0.6866,0.683,0.6823,0.6818,0,0,0,0,0,0,0.6742,0.677,0.6785,0.6774,0.6785,0.6808,0.68,0.6818,0.6824,0.6827,0.6854,0.6858,0.6849,0.6859,0.6871,0.6852,0.6874,0.6872,0.6846,0.684,0.6835,0.6832,0.6903,0,0,0,0,0,0.6732,0.6733,0.6757,0.6745,0.675,0.6774,0.6776,0.6793,0.6805,0.6809,0.6824,0.6835,0.6838,0.684,0.6844,0.683,0.6834,0.6821,0.6816,0.6812,0.6809,0.6803,0.6797,0.6857,0.6857,0.6858,0,0,0.671,0.6726,0.6724,0.6737,0.6748,0.6748,0.6778,0.6776,0.6776,0.6809,0.6805,0.6816,0.683,0.682,0.6816,0.6828,0.6794,0.6809,0.6805,0.6805,0.68,0.6794,0.6789,0.6856,0.6856,0.6856,0,0,0.667,0.6682,0.6674,0.6684,0.67,0.6716,0.6714,0.6735,0.6744,0.674,0.6765,0.6765,0.677,0.6779,0.6784,0.6749,0.6767,0.675,0.6723,0.6716,0.6711,0.6707,0.6695,0.669,0.6747,0.6747,0.6747,0,0.6641,0.6642,0.6667,0.6665,0.667,0.67,0.6692,0.6701,0.6716,0.6719,0.6732,0.674,0.6751,0.6744,0.6735,0.6738,0.6737,0.6747,0.671,0.6706,0.6703,0.6691,0.6686,0.6745,0.6745,0.6746,0.6746,0,0.6606,0.6606,0.6598,0.6613,0.6617,0.6612,0.6636,0.6637,0.6653,0.6668,0.6664,0.6679,0.6687,0.6687,0.6702,0.6682,0.6689,0.6705,0.6728,0.6694,0.6684,0.668,0.6742,0.6743,0.6743,0.6744,0,0,0.6539,0.6569,0.6566,0.6573,0.6593,0.6594,0.659,0.6599,0.6599,0.661,0.6607,0.6611,0.6627,0.6633,0.665,0.6644,0.6615,0.6662,0.6662,0.6652,0.6594,0.658,0.6575,0.6628,0.6627,0.6626,0.6592,0,0.6503,0.6498,0.6521,0.651,0.6511,0.6541,0.6537,0.6549,0.6563,0.6566,0.6581,0.6583,0.6604,0.6608,0.6604,0.6619,0.6604,0.6622,0.6625,0.6625,0.662,0.6569,0.6555,0.6522,0.6588,0.6588,0.6587,0,0.646,0.6469,0.6458,0.6479,0.6481,0.6477,0.6487,0.6489,0.6503,0.6514,0.6521,0.6541,0.6538,0.656,0.6557,0.6569,0.6572,0.658,0.6579,0.658,0.6603,0.6568,0.6512,0.6507,0.6581,0.6581,0.6582,0,0.6412,0.6421,0.6416,0.6422,0.6447,0.6444,0.6454,0.6469,0.6473,0.6482,0.6484,0.6492,0.6497,0.6502,0.6524,0.6538,0.6518,0.6542,0.6526,0.6526,0.652,0.652,0.6464,0.6523,0.6523,0.6523,0.6523,0,0.6369,0.6361,0.6395,0.6392,0.6385,0.6411,0.6403,0.6416,0.6429,0.6429,0.6455,0.6454,0.6483,0.6485,0.6502,0.6496,0.6498,0.6506,0.6511,0.6504,0.6503,0.6505,0.6508,0.6521,0.6522,0.6522,0.6522,0,0.6314,0.6337,0.6333,0.6357,0.6363,0.6356,0.6377,0.6375,0.6391,0.639,0.6392,0.6417,0.6421,0.6443,0.6452,0.6463,0.6452,0.6461,0.6447,0.645,0.6433,0.6435,0.6376,0.637,0.6433,0.6432,0.6432,0,0.6285,0.628,0.6304,0.6306,0.6315,0.6318,0.6322,0.6348,0.6352,0.6368,0.6364,0.637,0.6377,0.6382,0.6401,0.6408,0.6417,0.6396,0.6418,0.6411,0.6416,0.6416,0.6416,0.6391,0.639,0.639,0.6389,0,0.6231,0.6242,0.6248,0.6258,0.6262,0.6271,0.6281,0.6281,0.631,0.6313,0.6318,0.6323,0.6333,0.6339,0.6349,0.6359,0.6379,0.6382,0.6379,0.6372,0.6364,0.6367,0.6434,0.6383,0.6384,0.6384,0.6385,0.6385,0.6188,0.6185,0.6201,0.6207,0.6218,0.6227,0.6226,0.6243,0.6247,0.6258,0.6273,0.6276,0.6291,0.6307,0.6316,0.6318,0.6329,0.6324,0.6323,0.6322,0.6318,0.6364,0.632,0.632,0.632,0.6321,0.6321,0,0.6135,0.6147,0.6152,0.6166,0.617,0.6189,0.6202,0.6204,0.6206,0.6219,0.6225,0.6231,0.6237,0.6257,0.6265,0.6263,0.6272,0.6264,0.6264,0.6266,0.6308,0.6309,0.6257,0.6257,0.6257,0.6257,0.6257,0.6257,0.6107,0.6103,0.6117,0.6119,0.6131,0.6135,0.614,0.6149,0.6159,0.6165,0.617,0.6183,0.6199,0.6208,0.6215,0.622,0.6222,0.6211,0.6219,0.6257,0.6263,0.6269,0.6271,0.6211,0.6211,0.6178,0.6177,0.6177]}]]